This demonstration page uses our WeatherBlox Daily Observations layout. Learn more.

Left ArrowRight Arrow

39.01783, -85.05884

Hourly Observations for February 19, 2021

Temp ( °F °C ) Dew Point ( °F °C ) Humidity (%) Winds ( mph kmh ) Pressure ( in mb ) Visibility ( mi km ) Precip ( " mm )
12:52 am 00:52 Cloudy with Haze 23 -5 17 -8.3 78 78 NW 9 15 30.26 1025 6 10 0.00 0.00
1:52 am 01:52 Cloudy 23 -5 17 -8.3 78 78 WNW 12 19 30.28 1026 7 11 0.00 0.00
2:35 am 02:35 Cloudy with Haze 22 -5.6 17 -8.3 82 82 WNW 12 19 30.33 1027 6 10 0.00 0.00
2:52 am 02:52 Cloudy with Haze 22 -5.6 16 -8.9 78 78 WNW 8 13 30.29 1026 6 10 0.00 0.00
3:52 am 03:52 Cloudy with Haze 21 -6.1 16 -8.9 81 81 WNW 10 17 30.29 1026 4 6 0.00 0.00
4:52 am 04:52 Cloudy with Haze 20 -6.7 15 -9.4 81 81 NW 13 20 30.29 1026 3 5 0.00 0.00
4:54 am 04:54 Cloudy with Haze 20 -6.7 15 -9.4 81 81 NW 12 19 30.34 1027 3 5 0.00 0.00
5:52 am 05:52 Cloudy with Light Snow 19 -7.2 14 -10 81 81 NW 7 11 30.31 1026 5 8 0.00 0.00
6:52 am 06:52 Cloudy with Light Snow 19 -7.2 14 -10 81 81 WNW 6 9 30.31 1027 6 10 0.00 0.00
7:52 am 07:52 Cloudy with Light Snow 19 -7.2 13 -10.6 77 77 NW 7 11 30.32 1027 4 6 0.00 0.00
8:52 am 08:52 Cloudy 20 -6.7 13 -10.6 74 74 NW 5 7 30.33 1027 7 11 0.00 0.00
9:45 am 09:45 Partly Cloudy 21 -6.1 12 -11.1 68 68 NW 3 6 30.36 1028 9 14 0.00 0.00
9:52 am 09:52 Partly Cloudy 21 -6.1 12 -11.1 68 68 NNW 3 6 30.32 1027 9 14 0.00 0.00
10:52 am 10:52 Mostly Cloudy 21 -6.1 13 -10.6 71 71 W 7 11 30.34 1027 10 16 0.00 0.00
11:52 am 11:52 Cloudy 23 -5 13 -10.6 65 65 NW 5 7 30.34 1027 8 13 0.00 0.00
12:41 pm 12:41 Partly Cloudy 25 -3.9 13 -10.6 60 60 W 6 9 30.36 1028 9 14 0.00 0.00
12:52 pm 12:52 Partly Cloudy 25 -3.9 13 -10.6 60 60 NW 8 13 30.33 1027 9 14 0.00 0.00
1:52 pm 13:52 Partly Cloudy 26 -3.3 14 -10 60 60 W 9 15 30.31 1026 10 16 0.00 0.00
2:52 pm 14:52 Mostly Sunny 26 -3.3 13 -10.6 57 57 NW 12 19 30.31 1026 10 16 0.00 0.00
3:52 pm 15:52 Mostly Sunny 26 -3.3 12 -11.1 55 55 WNW 15 24 30.31 1026 10 16 0.00 0.00
4:52 pm 16:52 Mostly Sunny 26 -3.3 10 -12.2 51 51 WNW 14 22 30.31 1026 10 16 0.00 0.00
5:52 pm 17:52 Mostly Sunny 25 -3.9 11 -11.7 55 55 WNW 10 17 30.31 1027 10 16 0.00 0.00
6:52 pm 18:52 Mostly Cloudy 24 -4.4 12 -11.1 60 60 NW 12 19 30.33 1027 10 16 0.00 0.00
7:52 pm 19:52 Cloudy with Light Snow 22 -5.6 10 -12.2 60 60 NW 10 17 30.35 1028 9 14 0.00 0.00
8:52 pm 20:52 Cloudy 20 -6.7 8 -13.3 60 60 NW 16 26 30.37 1028 9 14 0.00 0.00
9:52 pm 21:52 Mostly Clear 18 -7.8 7 -13.9 62 62 WNW 7 11 30.38 1029 9 14 0.00 0.00
10:52 pm 22:52 Mostly Clear 16 -8.9 6 -14.4 65 65 W 3 6 30.40 1030 8 13 0.00 0.00
11:52 pm 23:52 Partly Cloudy 13 -10.6 5 -15 70 70 SSW 5 7 30.39 1029 8 13 0.00 0.00

Powered by AerisWeather